Temp
1 1 1 1 1 2 2 2 2 2 2 2 2 2 2 2 2 2 1 1 1 1 1 1 1 1 1 1 1 1 1 0 0 0 0 0 0 0 0 0 0 0
0 -0 0 0 1 2 1 1 1 1 2 2 2 2 2 2 2 1 1 1 1 1 1 1 1 0 0 0 0 0 0 0 -0 -0 -0 -0 -0 -0 -0 -0 -0 -0
1 0 0 0 1 1 1 1 1 1 1 1 1 1 1 1 1 1 1 1 1 1 1 0 0 0 0 0 0 -0 -0 -0 -0 -0 -0 -0 -1 -1 -1 -1 -1 -1
1 1 1 -0 0 1 1 1 1 1 1 1 1 1 1 1 1 1 1 1 1 1 1 0 0 0 0 0 0 0 -0 -0 -0 -0 -0 -0 -1 -1 -1 -1 -1 -1
0 1 1 0 0 1 1 1 1 1 1 1 1 1 1 1 1 1 1 1 1 1 1 1 0 0 0 0 0 0 0 0 0 -0 -0 -0 -0 -0 -0 -1 -1 -1
0 1 1 0 0 0 1 1 1 1 1 1 1 1 1 1 1 1 1 1 1 1 1 1 1 1 0 0 0 0 0 0 0 0 0 -0 -0 -0 -0 -0 -1 -1
0 1 1 0 -0 0 0 0 0 1 1 1 1 1 1 1 1 1 1 1 1 1 1 1 1 1 0 0 0 0 0 0 0 0 0 0 0 -0 -0 -0 -0 -1
0 0 -0 -0 -0 0 0 -0 -0 0 0 1 0 0 0 0 0 0 1 1 1 1 1 1 1 0 0 0 0 0 0 0 -0 -0 0 0 0 0 0 0 -0 -0
0 -0 -0 -0 -0 -0 -0 -0 -0 -0 -0 -0 -0 -0 -0 -0 -0 0 0 0 0 0 0 0 0 0 0 0 -0 -0 -0 -0 -0 -0 0 -0 0 0 0 0 0 0
0 0 0 0 0 -0 -0 -0 -1 -1 -1 -1 -1 -1 -1 -1 -1 -1 -0 -0 -1 -1 -1 -0 -0 -0 -0 -0 -0 -0 -0 0 0 0 0 -0 -0 -0 -0 0 0 0
1 1 1 0 0 0 -0 -1 -1 -1 -1 -1 -1 -1 -1 -1 -1 -1 -1 -1 -1 -1 -1 -1 -1 -1 -0 -0 -0 0 0 0 1 1 0 -0 -0 -0 -0 -0 -0 0
2 2 1 1 0 -0 -0 -0 -0 -1 -1 -1 -1 -1 -1 -1 -1 -1 -1 -1 -1 -1 -1 -1 -1 -1 -1 -0 -0 0 0 1 1 1 0 -1 -1 -1 -1 -0 -0 0
2 1 1 0 -0 -0 -1 -1 -1 -1 -1 -1 -1 -1 -1 -1 -1 -1 -1 -1 -1 -1 -1 -1 -1 -1 -1 -0 -0 -0 0 0 1 1 0 -1 -1 -1 -1 -1 -0 -0
1 1 0 0 -0 -1 -1 -1 -1 -1 -1 -1 -1 -1 -1 -1 -1 -1 -1 -1 -1 -2 -2 -1 -1 -1 -1 -1 -0 -0 -0 0 -0 -0 -0 -1 -1 -1 -1 -1 -1 -1
1 1 0 0 -0 -1 -1 -1 -1 -1 -1 -1 -1 -1 -1 -1 -1 -1 -1 -1 -1 -2 -2 -1 -1 -1 -1 -1 -1 -1 -1 -1 -1 -1 -1 -1 -1 -1 -1 -1 -1 -1
0 0 0 -0 -0 -1 -1 -1 -1 -1 -1 -1 -1 -1 -1 -2 -2 -2 -2 -2 -2 -2 -2 -2 -1 -1 -1 -1 -1 -1 -1 -1 -1 -1 -1 -1 -1 -1 -1 -1 -1 -1
-0 -0 -0 -0 -1 -1 -1 -1 -1 -1 -1 -1 -1 -1 -1 -2 -2 -2 -2 -2 -2 -2 -2 -1 -1 -1 -1 -1 -1 -1 -1 -1 -1 -1 -1 -1 -1 -1 -1 -1 -1 -1
-0 -1 -1 -1 -1 -1 -1 -1 -1 -1 -1 -1 -1 -1 -1 -2 -2 -2 -2 -2 -2 -2 -2 -1 -1 -1 -1 -1 -1 -1 -1 -1 -1 -1 -0 -0 -1 -1 -1 -1 -1 -1
-1 -1 -1 -1 -1 -1 -1 -1 -1 -1 -1 -1 -1 -1 -2 -2 -2 -2 -2 -2 -2 -2 -2 -2 -2 -2 -2 -2 -2 -2 -1 -1 -1 -1 -1 -1 -1 -1 -1 -1 -1 -1
-1 -1 -1 -1 -1 -1 -1 -1 -1 -1 -1 -1 -1 -1 -2 -2 -2 -2 -2 -2 -2 -2 -2 -2 -2 -2 -2 -2 -2 -2 -2 -2 -2 -2 -1 -1 -1 -1 -1 -1 -1 -1
-1 -1 -1 -1 -1 -1 -1 -1 -1 -1 -1 -2 -2 -2 -2 -2 -3 -3 -3 -3 -3 -3 -3 -3 -2 -2 -2 -2 -2 -2 -2 -2 -2 -2 -2 -2 -2 -2 -2 -2 -2 -2
-2 -2 -2 -2 -2 -2 -2 -2 -2 -2 -2 -2 -2 -3 -3 -3 -3 -3 -3 -3 -3 -3 -3 -3 -2 -2 -2 -2 -2 -2 -2 -2 -2 -2 -2 -2 -2 -2 -2 -2 -2 -2
-2 -2 -2 -2 -2 -2 -2 -2 -2 -3 -3 -3 -3 -3 -3 -3 -3 -3 -3 -3 -3 -3 -3 -3 -3 -3 -3 -3 -3 -3 -3 -3 -2 -2 -2 -2 -2 -2 -2 -2 -2 -2
-3 -3 -3 -3 -3 -3 -3 -3 -3 -3 -3 -3 -3 -3 -3 -3 -3 -3 -3 -3 -3 -3 -3 -3 -3 -3 -3 -3 -3 -3 -3 -3 -3 -3 -3 -3 -3 -3 -3 -3 -3 -3
-4 -4 -4 -4 -4 -4 -3 -3 -3 -3 -3 -3 -3 -3 -3 -3 -3 -3 -3 -3 -4 -4 -4 -4 -4 -3 -3 -3 -3 -3 -3 -3 -3 -3 -3 -3 -3 -3 -3 -3 -3 -3
-4 -4 -4 -4 -4 -4 -4 -4 -4 -4 -4 -4 -4 -4 -4 -4 -4 -4 -4 -4 -4 -4 -4 -4 -4 -4 -4 -4 -4 -4 -4 -3 -3 -3 -3 -3 -3 -3 -3 -3 -3 -3
Height
3122 3124 3125 3126 3128 3128 3127 3127 3126 3126 3126 3125 3125 3125 3125 3125 3125 3125 3125 3125 3125 3126 3126 3127 3127 3128 3128 3129 3129 3129 3130 3131 3131 3132 3132 3132 3133 3133 3133 3133 3133 3133
3118 3120 3123 3125 3126 3127 3127 3127 3127 3126 3126 3126 3126 3126 3126 3126 3126 3126 3127 3127 3127 3127 3128 3128 3129 3129 3130 3130 3130 3131 3131 3132 3132 3133 3133 3133 3134 3134 3134 3133 3133 3133
3114 3117 3121 3124 3125 3125 3126 3126 3126 3126 3127 3127 3127 3127 3128 3128 3128 3128 3128 3129 3129 3129 3129 3130 3130 3131 3131 3132 3132 3132 3132 3132 3133 3133 3134 3134 3134 3134 3134 3134 3134 3134
3115 3117 3120 3122 3124 3124 3125 3126 3126 3126 3127 3127 3127 3128 3128 3129 3130 3130 3130 3130 3131 3131 3131 3132 3132 3132 3133 3133 3133 3134 3134 3133 3133 3133 3134 3134 3134 3134 3134 3134 3134 3134
3114 3116 3118 3120 3122 3123 3123 3125 3126 3126 3126 3127 3127 3128 3129 3129 3130 3131 3131 3132 3132 3132 3132 3133 3133 3134 3134 3134 3135 3135 3135 3135 3134 3134 3134 3134 3134 3134 3134 3134 3134 3134
3111 3114 3115 3116 3119 3121 3122 3124 3126 3126 3126 3126 3127 3128 3128 3129 3130 3131 3131 3132 3133 3133 3133 3134 3134 3134 3134 3135 3135 3135 3135 3135 3135 3135 3135 3135 3134 3134 3134 3134 3134 3134
3110 3112 3113 3114 3117 3119 3121 3122 3124 3125 3125 3126 3126 3127 3127 3128 3129 3129 3130 3131 3132 3133 3133 3134 3134 3134 3134 3134 3135 3135 3135 3135 3135 3135 3135 3135 3135 3134 3134 3134 3133 3133
3109 3111 3112 3114 3115 3118 3119 3121 3123 3124 3124 3124 3125 3126 3126 3127 3128 3128 3129 3130 3131 3131 3132 3132 3133 3133 3133 3134 3134 3134 3134 3134 3135 3135 3134 3134 3134 3134 3134 3133 3133 3132
3107 3109 3110 3112 3113 3115 3117 3118 3120 3122 3123 3123 3124 3124 3125 3126 3126 3127 3128 3129 3129 3130 3130 3131 3131 3132 3132 3133 3133 3133 3133 3134 3134 3134 3134 3133 3133 3133 3133 3132 3132 3132
3104 3105 3106 3109 3111 3112 3114 3115 3116 3118 3120 3121 3121 3122 3123 3124 3124 3125 3126 3127 3128 3128 3129 3129 3130 3130 3131 3131 3132 3132 3132 3132 3132 3132 3132 3132 3131 3131 3131 3131 3130 3130
3101 3101 3103 3107 3109 3109 3110 3112 3114 3116 3117 3118 3118 3119 3120 3121 3122 3122 3123 3123 3124 3125 3126 3127 3128 3128 3129 3130 3130 3130 3130 3130 3130 3130 3130 3129 3129 3129 3129 3129 3128 3128
3099 3100 3101 3104 3106 3107 3108 3109 3111 3113 3114 3115 3116 3115 3116 3117 3119 3120 3120 3120 3120 3122 3123 3125 3126 3127 3128 3128 3128 3128 3128 3128 3128 3127 3126 3127 3127 3127 3127 3127 3126 3126
3097 3098 3099 3100 3102 3103 3105 3107 3109 3110 3111 3112 3112 3112 3113 3114 3115 3117 3119 3119 3118 3118 3120 3123 3124 3125 3126 3126 3126 3126 3125 3125 3124 3124 3123 3123 3124 3124 3124 3124 3124 3124
3095 3096 3097 3097 3099 3101 3103 3105 3105 3106 3107 3108 3107 3107 3108 3110 3112 3114 3115 3117 3117 3116 3118 3121 3122 3123 3123 3123 3124 3123 3123 3122 3121 3121 3120 3120 3121 3121 3121 3122 3122 3122
3094 3095 3096 3097 3099 3100 3101 3102 3103 3104 3105 3105 3104 3105 3106 3108 3110 3112 3112 3114 3115 3115 3116 3118 3119 3120 3121 3121 3121 3120 3120 3119 3119 3119 3118 3118 3119 3119 3119 3119 3119 3120
3092 3093 3094 3096 3097 3099 3099 3100 3100 3101 3103 3104 3103 3104 3106 3106 3108 3109 3111 3112 3113 3113 3115 3117 3118 3118 3118 3118 3117 3117 3117 3117 3117 3117 3117 3117 3117 3117 3117 3117 3117 3118
3090 3092 3093 3094 3096 3097 3097 3098 3098 3098 3100 3101 3101 3102 3104 3105 3105 3106 3108 3110 3111 3112 3114 3115 3115 3115 3115 3115 3115 3115 3115 3115 3115 3115 3115 3115 3115 3114 3115 3115 3115 3115
3089 3090 3092 3093 3093 3093 3094 3096 3096 3096 3097 3098 3098 3100 3102 3103 3103 3105 3107 3108 3108 3109 3111 3112 3112 3112 3112 3112 3112 3113 3113 3113 3113 3113 3112 3112 3112 3112 3112 3112 3112 3111
3087 3088 3089 3089 3090 3091 3092 3093 3094 3095 3095 3096 3097 3098 3099 3100 3101 3103 3104 3105 3105 3106 3108 3109 3110 3110 3110 3110 3110 3110 3110 3110 3110 3110 3109 3109 3109 3108 3108 3108 3108 3107
3084 3084 3084 3085 3087 3089 3090 3091 3091 3092 3093 3094 3094 3095 3095 3097 3098 3100 3101 3101 3102 3104 3105 3106 3107 3107 3107 3107 3107 3106 3106 3106 3106 3106 3106 3106 3105 3105 3104 3104 3104 3103
3081 3082 3082 3083 3085 3087 3087 3088 3089 3089 3090 3091 3091 3092 3092 3094 3095 3096 3097 3099 3100 3102 3103 3103 3104 3104 3104 3103 3103 3103 3103 3103 3103 3102 3102 3102 3101 3101 3100 3100 3100 3100
3079 3080 3081 3082 3083 3084 3085 3086 3087 3087 3087 3088 3089 3090 3091 3092 3093 3094 3096 3097 3098 3099 3100 3100 3101 3101 3100 3100 3100 3100 3100 3099 3099 3099 3098 3098 3097 3097 3096 3096 3096 3096
3077 3078 3079 3080 3081 3082 3083 3084 3085 3085 3086 3087 3088 3088 3089 3090 3091 3092 3094 3095 3095 3096 3097 3097 3097 3097 3097 3097 3097 3097 3097 3096 3096 3095 3094 3094 3093 3093 3093 3092 3092 3091
3073 3075 3076 3077 3079 3080 3080 3081 3082 3083 3084 3085 3086 3086 3087 3088 3089 3090 3091 3091 3092 3093 3093 3093 3094 3094 3094 3094 3094 3093 3093 3093 3092 3091 3091 3090 3090 3089 3089 3088 3088 3088
3069 3071 3072 3074 3075 3076 3077 3078 3079 3080 3081 3082 3083 3083 3084 3084 3085 3086 3087 3087 3088 3089 3089 3090 3090 3091 3091 3090 3090 3090 3089 3089 3088 3088 3087 3086 3086 3085 3085 3084 3084 3083
3065 3067 3069 3070 3071 3073 3074 3075 3076 3077 3078 3079 3079 3080 3080 3081 3081 3082 3082 3083 3084 3085 3086 3086 3086 3086 3087 3086 3086 3086 3086 3085 3084 3084 3083 3083 3082 3081 3080 3080 3079 3079
Wind_Speed
13 14 13 8 4 3 1 2 3 4 5 7 7 8 8 9 10 11 12 12 12 13 14 14 15 16 16 15 15 15 14 14 13 13 12 11 10 9 9 8 8 7
21 20 16 9 8 7 4 4 3 4 5 8 9 10 10 10 11 12 13 14 14 15 16 16 17 17 17 17 16 16 15 15 14 14 14 13 12 12 12 11 11 10
27 24 17 10 9 9 8 7 6 5 6 8 10 11 11 10 10 11 12 13 14 14 14 14 15 15 14 14 14 13 13 12 12 11 11 11 11 11 10 10 10 10
25 21 14 11 11 12 12 10 7 6 7 8 9 10 11 10 9 9 9 9 9 10 10 10 10 10 10 9 9 9 8 8 8 8 8 8 7 8 7 8 8 7
21 16 11 14 16 14 14 12 9 8 7 8 9 9 9 9 7 7 6 6 6 6 7 7 7 6 6 6 5 4 4 3 3 3 4 4 4 4 4 4 5 5
19 15 12 17 19 15 15 14 11 10 9 8 8 8 8 8 6 6 4 3 3 4 4 4 4 3 4 4 5 5 5 5 4 3 2 1 1 1 1 2 2 2
17 15 15 19 21 18 18 16 14 13 11 10 9 8 8 7 7 7 6 5 4 3 2 2 2 3 4 5 6 7 8 9 8 7 7 6 4 3 3 3 3 3
19 18 18 20 21 21 20 18 17 16 15 14 12 11 10 10 9 8 7 7 6 6 6 5 6 6 6 6 7 8 9 10 11 11 11 10 10 9 8 7 7 6
24 24 24 23 23 23 23 22 20 20 18 17 15 14 13 12 11 10 8 7 6 6 6 6 6 6 6 6 7 9 10 11 13 14 15 16 15 14 13 12 11 11
26 28 29 27 24 25 27 27 25 24 23 21 19 18 18 16 15 14 12 9 8 7 6 6 6 7 8 8 8 10 12 13 15 18 20 20 20 19 18 16 15 14
27 29 29 28 25 26 29 30 27 27 27 26 24 23 21 21 21 19 16 14 11 10 9 9 10 10 10 10 12 13 15 16 18 21 22 22 21 21 20 19 18 17
28 28 27 27 27 25 27 28 26 27 29 30 31 29 25 25 26 23 20 18 14 12 11 11 11 10 10 11 14 15 17 18 20 22 23 22 20 20 20 20 20 20
29 30 30 30 28 25 27 26 25 26 30 32 34 33 30 29 29 25 23 20 15 12 10 10 11 12 13 14 15 16 17 19 19 21 22 22 20 19 20 20 20 21
28 31 33 30 25 23 25 26 25 26 30 34 37 38 36 35 30 26 25 21 14 10 9 10 14 16 16 15 16 17 18 18 18 18 19 21 22 23 21 20 19 19
25 28 29 24 21 24 26 26 25 25 27 31 34 32 30 29 25 20 18 16 12 8 7 11 15 17 18 17 17 17 16 16 16 16 17 19 21 25 27 26 22 19
25 26 23 17 19 25 25 19 16 15 16 20 21 17 14 14 13 10 9 9 8 7 8 11 13 14 15 15 16 16 15 14 15 16 17 17 18 21 26 30 29 27
21 21 20 17 18 19 16 10 8 9 9 12 16 14 11 10 8 8 9 8 8 8 10 11 11 11 11 12 14 15 15 16 17 18 18 18 19 19 21 25 29 32
14 16 18 18 16 14 12 10 10 9 9 11 13 11 11 11 9 9 11 11 9 9 11 12 12 13 13 14 16 17 18 20 21 22 22 23 24 24 24 25 27 30
15 17 18 18 17 15 14 13 13 12 12 13 13 11 11 12 11 11 13 13 11 10 11 12 14 15 17 19 21 22 24 25 25 26 27 28 29 30 30 30 30 30
18 19 19 18 17 16 16 15 15 15 14 14 15 14 13 12 12 13 13 12 11 11 13 15 17 20 22 23 24 25 25 26 26 27 27 28 29 30 30 30 30 31
18 18 17 16 16 16 17 17 17 16 15 15 14 14 13 13 14 14 13 13 15 17 19 21 22 23 23 23 23 23 24 24 25 25 25 25 26 27 27 28 28 28
18 18 18 17 17 18 18 18 17 16 15 15 14 15 16 17 17 18 18 19 21 23 24 24 23 22 22 23 24 24 24 25 25 25 25 25 25 26 26 27 27 27
21 20 19 19 19 19 19 18 18 18 18 18 20 21 22 23 24 24 25 25 26 26 25 24 23 23 23 23 24 24 25 25 26 26 26 26 26 26 26 26 26 26
22 21 20 20 19 20 20 20 20 20 21 22 24 25 25 26 26 26 26 26 26 25 24 24 24 24 24 24 25 25 25 26 26 27 27 27 27 27 27 27 27 26
23 23 22 22 22 22 22 22 22 22 23 23 24 25 25 25 25 25 25 25 24 23 22 22 22 22 23 24 25 26 26 27 28 28 29 29 29 29 29 29 29 29
24 24 24 24 25 25 24 24 23 23 23 24 24 25 25 25 25 25 24 23 23 22 22 21 22 22 23 24 25 26 27 28 28 29 30 30 30 31 31 31 30 30
Wind_Direction
199 210 206 186 165 153 72 52 44 43 67 84 102 111 115 121 120 120 120 117 115 112 108 106 104 102 102 101 102 102 101 101 98 97 96 96 96 95 95 93 90 90
200 217 218 188 167 164 150 145 121 95 99 106 116 122 122 125 124 121 120 118 115 114 112 109 107 105 104 103 102 101 100 98 95 93 90 87 86 85 84 84 82 81
208 217 220 196 179 169 162 169 158 136 127 123 127 130 128 128 125 122 123 122 121 119 117 115 112 110 108 108 107 106 106 105 101 99 93 89 85 82 80 79 78 77
223 220 223 203 188 176 170 178 178 161 151 142 141 140 137 133 129 127 127 126 125 122 118 113 110 107 104 104 104 104 106 106 105 103 98 95 89 84 81 77 73 70
244 225 224 200 190 187 179 183 191 180 172 163 156 153 149 145 140 139 135 128 124 120 116 111 103 94 83 76 72 68 69 74 86 93 96 97 91 85 80 74 71 66
242 223 220 201 201 206 190 185 197 198 193 185 176 176 175 170 172 174 174 166 147 134 126 118 102 72 45 32 20 10 0 350 343 341 347 14 46 57 53 39 29 22
227 221 218 204 204 207 194 191 205 209 205 200 197 203 202 198 201 204 213 229 233 233 231 241 280 315 328 333 338 340 339 334 326 322 318 311 305 294 288 297 296 299
231 235 228 210 200 200 194 194 210 218 215 211 208 212 215 218 220 222 230 235 238 246 251 260 272 282 293 304 316 322 325 324 316 313 312 307 299 289 278 272 270 272
233 240 235 217 201 202 202 200 210 220 222 218 212 209 214 219 222 225 232 230 223 230 243 255 265 270 273 286 308 314 314 312 307 302 302 302 300 294 285 275 269 267
230 236 236 224 209 208 210 208 209 217 224 225 220 216 215 216 218 216 214 214 217 222 229 235 243 249 256 270 287 295 296 298 298 294 291 291 293 294 290 284 278 274
227 228 232 229 220 217 218 218 217 217 223 228 229 229 225 222 223 218 210 209 212 216 221 220 228 241 251 266 279 286 291 293 294 289 281 276 279 284 285 284 281 279
225 226 229 228 224 225 229 233 234 229 227 230 233 234 232 233 233 226 218 218 214 213 225 229 232 244 255 268 280 285 289 290 289 284 274 264 263 268 272 275 277 278
222 222 223 220 219 225 233 242 250 244 237 237 235 232 231 231 232 231 229 230 225 212 218 235 247 261 270 276 282 285 286 284 279 276 271 259 248 250 259 264 268 273
228 223 221 220 219 226 237 248 257 252 245 244 238 235 234 231 231 236 233 236 245 234 231 256 269 276 281 281 284 284 280 275 271 270 270 261 246 241 248 256 259 264
235 228 224 226 227 232 245 258 262 254 251 252 245 240 243 241 243 251 245 246 270 280 275 283 282 281 281 281 283 281 274 274 278 280 279 273 258 246 245 249 253 261
233 227 226 241 248 247 253 262 264 258 257 261 255 248 250 249 250 261 254 252 270 271 263 269 273 276 279 280 281 278 275 280 286 287 286 284 277 264 255 252 254 262
234 229 233 251 261 262 264 258 254 263 266 266 266 257 244 241 242 241 235 235 240 242 249 259 268 279 283 281 279 277 277 280 282 284 284 282 281 277 269 261 257 261
227 228 233 242 248 254 256 240 233 246 252 258 265 254 238 243 246 231 230 240 242 241 253 266 274 277 275 273 271 269 270 272 274 277 278 278 277 276 272 267 263 263
223 224 225 231 233 233 233 230 229 233 241 249 254 248 241 243 237 227 237 252 253 244 249 258 261 262 263 263 264 265 267 268 270 271 271 272 274 274 272 271 270 269
234 232 232 231 228 225 227 231 234 238 242 245 247 248 247 243 238 240 248 253 247 240 246 252 257 261 263 265 266 267 269 269 270 270 270 270 271 271 272 271 272 273
244 245 245 241 233 229 230 233 239 244 247 247 245 244 243 240 240 243 244 241 239 243 251 256 261 264 267 269 271 272 272 272 271 271 271 271 272 272 272 272 272 272
235 236 236 234 231 231 233 235 240 243 244 242 239 235 233 233 234 236 236 238 241 246 251 256 260 264 268 272 275 277 278 277 277 276 275 275 275 275 275 275 274 273
229 229 230 232 232 233 234 235 235 235 233 231 231 232 234 235 235 236 238 241 246 250 255 259 264 268 272 275 277 279 280 280 280 279 279 280 280 279 279 279 278 277
227 227 227 229 229 230 231 231 230 230 230 230 232 234 235 236 238 240 244 247 251 255 259 263 267 271 275 278 279 279 279 278 279 278 279 280 281 281 281 280 279 279
221 223 223 224 225 226 228 229 230 231 230 230 231 232 232 235 238 243 247 250 253 256 260 264 269 272 275 277 278 279 279 278 278 278 279 279 280 281 282 282 282 281
217 220 222 222 223 225 227 229 231 232 232 231 231 232 234 237 240 244 248 252 256 260 265 269 273 275 277 279 279 279 279 279 279 279 279 279 280 281 282 284 285 285